| time (UTC) | temp F | wind direction | speed MPH | gust MPH | rain 1hr in | rain 24hr in | rain mn in | humidity % | barometer mb |
| 20260506194513 | 83 | 62 | 1.0 | 5.0 | 0.00 | 0.00 | 0.00 | 80 | 1007.3 |
| 20260506193008 | 83 | 26 | 3.0 | 8.0 | 0.00 | 0.00 | 0.00 | 81 | 1007.4 |
| 20260506191504 | 84 | 27 | 4.0 | 8.0 | 0.00 | 0.00 | 0.00 | 82 | 1007.5 |
| 20260506190059 | 83 | 97 | 2.0 | 6.0 | 0.00 | 0.00 | 0.00 | 83 | 1007.7 |
| 20260506184555 | 82 | 87 | 0.0 | 7.0 | 0.00 | 0.00 | 0.00 | 86 | 1007.9 |
| 20260506183051 | 81 | 56 | 4.0 | 7.0 | 0.00 | 0.00 | 0.00 | 87 | 1008.0 |
| 20260506181546 | 81 | 14 | 3.0 | 6.0 | 0.00 | 0.00 | 0.00 | 87 | 1008.2 |
| 20260506180042 | 81 | 5 | 4.0 | 9.0 | 0.00 | 0.00 | 0.00 | 88 | 1008.4 |
| 20260506174538 | 80 | 180 | 1.0 | 6.0 | 0.00 | 0.00 | 0.00 | 88 | 1008.6 |
| 20260506173033 | 80 | 65 | 3.0 | 8.0 | 0.00 | 0.00 | 0.00 | 90 | 1008.7 |
| 20260506171532 | 79 | 28 | 3.0 | 6.0 | 0.00 | 0.00 | 0.00 | 90 | 1008.9 |
| 20260506170023 | 79 | 109 | 1.0 | 3.0 | 0.00 | 0.00 | 0.00 | 91 | 1009.1 |
| 20260506164521 | 79 | 109 | 2.0 | 3.0 | 0.00 | 0.00 | 0.00 | 91 | 1009.3 |
| 20260506163015 | 78 | 109 | 2.0 | 4.0 | 0.00 | 0.00 | 0.00 | 92 | 1009.2 |
| 20260506161511 | 78 | 130 | 3.0 | 5.0 | 0.00 | 0.00 | 0.00 | 92 | 1008.9 |
| 20260506160006 | 78 | 130 | 4.0 | 8.0 | 0.00 | 0.00 | 0.00 | 92 | 1008.6 |
| 20260506154502 | 78 | 131 | 3.0 | 7.0 | 0.00 | 0.00 | 0.00 | 93 | 1008.2 |
| 20260506153057 | 77 | 129 | 4.0 | 9.0 | 0.00 | 0.00 | 0.00 | 93 | 1008.1 |
| 20260506151552 | 77 | 133 | 2.0 | 7.0 | 0.00 | 0.00 | 0.00 | 94 | 1008.2 |
| 20260506150057 | 77 | 142 | 4.0 | 10.0 | 0.00 | 0.00 | 0.00 | 94 | 1008.0 |
| 20260506144600 | 76 | 146 | 6.0 | 9.0 | 0.00 | 0.00 | 0.00 | 94 | 1007.7 |
| 20260506143049 | 76 | 120 | 3.0 | 7.0 | 0.00 | 0.00 | 0.00 | 94 | 1007.7 |
| 20260506141535 | 76 | 119 | 3.0 | 9.0 | 0.00 | 0.00 | 0.00 | 95 | 1007.4 |
| 20260506140053 | 75 | 123 | 6.0 | 10.0 | 0.00 | 0.00 | 0.00 | 95 | 1007.0 |
| 20260506134536 | 75 | 125 | 6.0 | 9.0 | 0.00 | 0.00 | 0.00 | 95 | 1007.1 |
| 20260506133031 | 75 | 123 | 5.0 | 10.0 | 0.00 | 0.00 | 0.00 | 95 | 1007.0 |
| 20260506131541 | 74 | 117 | 3.0 | 7.0 | 0.00 | 0.00 | 0.00 | 94 | 1007.2 |
| 20260506130031 | 74 | 130 | 3.0 | 7.0 | 0.00 | 0.00 | 0.00 | 94 | 1007.0 |
| 20260506124529 | 74 | 165 | 2.0 | 5.0 | 0.00 | 0.00 | 0.00 | 95 | 1007.1 |
| 20260506123037 | 74 | 138 | 3.0 | 5.0 | 0.00 | 0.00 | 0.00 | 95 | 1006.9 |
| 20260506121528 | 74 | 149 | 2.0 | 5.0 | 0.00 | 0.00 | 0.00 | 94 | 1006.9 |
| 20260506120032 | 74 | 149 | 2.0 | 5.0 | 0.00 | 0.00 | 0.00 | 94 | 1006.8 |
| 20260506114527 | 73 | 150 | 1.0 | 3.0 | 0.00 | 0.00 | 0.00 | 94 | 1006.7 |
| 20260506113033 | 74 | 150 | 2.0 | 5.0 | 0.00 | 0.00 | 0.00 | 94 | 1006.7 |
| 20260506111525 | 73 | 150 | 2.0 | 6.0 | 0.00 | 0.00 | 0.00 | 94 | 1006.7 |
| 20260506110037 | 74 | 151 | 2.0 | 3.0 | 0.00 | 0.00 | 0.00 | 94 | 1006.5 |
| 20260506104527 | 74 | 151 | 1.0 | 2.0 | 0.00 | 0.00 | 0.00 | 94 | 1006.6 |
| 20260506103025 | 74 | 151 | 1.0 | 2.0 | 0.00 | 0.00 | 0.00 | 94 | 1006.6 |
| 20260506101526 | 73 | 151 | 2.0 | 5.0 | 0.00 | 0.00 | 0.00 | 94 | 1006.3 |
| 20260506100022 | 73 | 151 | 0.0 | 2.0 | 0.00 | 0.00 | 0.00 | 94 | 1006.3 |
| 20260506094526 | 73 | 151 | 0.0 | 2.0 | 0.00 | 0.00 | 0.00 | 94 | 1006.2 |
| 20260506093030 | 73 | 151 | 0.0 | 1.0 | 0.00 | 0.00 | 0.00 | 94 | 1006.3 |
| 20260506091520 | 73 | 151 | 0.0 | 2.0 | 0.00 | 0.00 | 0.00 | 94 | 1006.4 |
| 20260506090019 | 73 | 151 | 2.0 | 6.0 | 0.00 | 0.00 | 0.00 | 94 | 1006.3 |
| 20260506084618 | 73 | 151 | 3.0 | 6.0 | 0.00 | 0.00 | 0.00 | 93 | 1006.2 |
| 20260506083027 | 74 | 149 | 3.0 | 7.0 | 0.00 | 0.00 | 0.00 | 93 | 1006.1 |
| 20260506081517 | 74 | 150 | 3.0 | 6.0 | 0.00 | 0.00 | 0.00 | 93 | 1006.2 |
| 20260506073010 | 75 | 360 | 4.0 | 8.0 | 0.00 | 0.00 | 0.00 | 93 | 1006.6 |
| 20260506071507 | 75 | 153 | 4.0 | 10.0 | 0.00 | 0.00 | 0.00 | 92 | 1006.8 |
| 20260506061503 | 75 | 159 | 8.0 | 15.0 | 0.00 | 0.00 | 0.00 | 92 | 1006.9 |
| 20260506044552 | 76 | 157 | 8.0 | 16.0 | 0.00 | 0.00 | 0.00 | 90 | 1007.0 |
| 20260506043043 | 76 | 169 | 11.0 | 14.0 | 0.00 | 0.00 | 0.00 | 90 | 1006.9 |
| 20260506041542 | 77 | 138 | 13.0 | 17.0 | 0.00 | 0.00 | 0.00 | 90 | 1006.8 |
| 20260506040036 | 77 | 153 | 11.0 | 16.0 | 0.00 | 0.00 | 0.00 | 89 | 1006.9 |
| 20260506034530 | 77 | 153 | 9.0 | 14.0 | 0.00 | 0.00 | 0.00 | 89 | 1006.9 |
| 20260506033028 | 77 | 146 | 7.0 | 14.0 | 0.00 | 0.00 | 0.00 | 89 | 1006.7 |
| 20260506031538 | 77 | 133 | 7.0 | 12.0 | 0.00 | 0.00 | 0.00 | 88 | 1006.5 |
| 20260506030016 | 77 | 134 | 6.0 | 11.0 | 0.00 | 0.00 | 0.00 | 88 | 1006.3 |
| 20260506024515 | 77 | 139 | 8.0 | 16.0 | 0.00 | 0.00 | 0.00 | 88 | 1006.1 |
| 20260506023008 | 78 | 142 | 10.0 | 15.0 | 0.00 | 0.00 | 0.00 | 87 | 1005.8 |
| 20260506021503 | 78 | 136 | 9.0 | 14.0 | 0.00 | 0.00 | 0.00 | 87 | 1005.7 |
| 20260506020059 | 78 | 360 | 7.0 | 15.0 | 0.00 | 0.00 | 0.00 | 86 | 1005.6 |
| 20260506014554 | 79 | 144 | 5.0 | 10.0 | 0.00 | 0.00 | 0.00 | 86 | 1005.3 |
| 20260506013103 | 79 | 157 | 6.0 | 12.0 | 0.00 | 0.00 | 0.00 | 87 | 1005.1 |
| 20260506011545 | 79 | 123 | 5.0 | 11.0 | 0.00 | 0.00 | 0.00 | 86 | 1004.7 |
| 20260506010053 | 80 | 136 | 6.0 | 11.0 | 0.00 | 0.00 | 0.00 | 85 | 1004.5 |
| 20260506004535 | 80 | 130 | 8.0 | 13.0 | 0.00 | 0.00 | 0.00 | 84 | 1004.3 |
| 20260506003031 | 81 | 133 | 7.0 | 11.0 | 0.00 | 0.00 | 0.00 | 83 | 1004.2 |
| 20260506001529 | 81 | 117 | 10.0 | 16.0 | 0.00 | 0.00 | 0.00 | 82 | 1004.1 |
| 20260506000021 | 82 | 136 | 10.0 | 17.0 | 0.00 | 0.00 | 0.00 | 81 | 1003.9 |
| 20260505234517 | 82 | 140 | 9.0 | 13.0 | 0.00 | 0.00 | 0.00 | 81 | 1003.8 |
| 20260505233012 | 82 | 130 | 10.0 | 16.0 | 0.00 | 0.00 | 0.00 | 80 | 1003.8 |
| 20260505231511 | 84 | 360 | 11.0 | 16.0 | 0.00 | 0.00 | 0.00 | 79 | 1003.7 |
| 20260505230004 | 83 | 161 | 9.0 | 15.0 | 0.00 | 0.00 | 0.00 | 79 | 1003.7 |
| 20260505224559 | 85 | 157 | 8.0 | 13.0 | 0.00 | 0.00 | 0.00 | 77 | 1003.8 |
| 20260505223055 | 85 | 139 | 9.0 | 15.0 | 0.00 | 0.00 | 0.00 | 77 | 1003.8 |
| 20260505221551 | 84 | 157 | 9.0 | 15.0 | 0.00 | 0.00 | 0.00 | 77 | 1004.0 |
| 20260505220045 | 85 | 106 | 7.0 | 18.0 | 0.00 | 0.00 | 0.00 | 77 | 1004.1 |
| 20260505214541 | 85 | 143 | 9.0 | 15.0 | 0.00 | 0.00 | 0.00 | 74 | 1004.3 |
| 20260505213036 | 84 | 164 | 10.0 | 14.0 | 0.00 | 0.00 | 0.00 | 75 | 1004.5 |
| 20260505211532 | 84 | 166 | 11.0 | 16.0 | 0.00 | 0.00 | 0.00 | 75 | 1004.6 |
| 20260505210028 | 84 | 157 | 12.0 | 16.0 | 0.00 | 0.00 | 0.00 | 75 | 1005.0 |
| 20260505204522 | 84 | 166 | 8.0 | 14.0 | 0.00 | 0.00 | 0.00 | 76 | 1005.2 |
| 20260505203028 | 83 | 160 | 9.0 | 13.0 | 0.00 | 0.00 | 0.00 | 77 | 1005.6 |
| 20260505201517 | 83 | 132 | 7.0 | 15.0 | 0.00 | 0.00 | 0.00 | 78 | 1005.7 |
| 20260505200009 | 83 | 123 | 6.0 | 14.0 | 0.00 | 0.00 | 0.00 | 79 | 1005.8 |